DW7584 Weather Reports


Display with metric or nautical units.
time (UTC)temp
F
wind
direction
speed
MPH
gust
MPH
rain 1hr
in
rain 24hr
in
rain mn
in
humidity
%
barometer
mb
20260508124016 45 225 4.0 9.0 0.00 0.00 0.00 71 1010.9
20260508123016 45 203 2.0 5.0 0.00 0.00 0.00 74 1010.9
20260508122016 44 203 2.0 7.0 0.00 0.00 0.00 75 1010.8
20260508121016 43 225 2.0 5.0 0.00 0.00 0.00 76 1010.8
20260508120016 42 225 2.0 5.0 0.00 0.00 0.00 76 1010.7
20260508115016 41 203 1.0 5.0 0.00 0.00 0.00 77 1010.6
20260508114016 40 203 1.0 4.0 0.00 0.00 0.00 80 1010.5
20260508113016 38 203 3.0 5.0 0.00 0.00 0.00 81 1010.4
20260508112037 37 203 2.0 4.0 0.00 0.00 0.00 82 1010.3
20260508111016 36 203 1.0 3.0 0.00 0.00 0.00 83 1010.2
20260508110016 36 203 1.0 2.0 0.00 0.00 0.00 84 1010.2
20260508105016 35 0.0 1.0 0.00 0.00 0.00 84 1010.2
20260508104015 35 0.0 2.0 0.00 0.00 0.00 84 1010.0
20260508103016 35 203 2.0 4.0 0.00 0.00 0.00 83 1010.3
20260508102016 36 203 1.0 3.0 0.00 0.00 0.00 83 1010.3
20260508101016 36 203 1.0 3.0 0.00 0.00 0.00 82 1010.4
20260508100016 36 203 1.0 3.0 0.00 0.00 0.00 83 1010.3
20260508095015 36 0.0 2.0 0.00 0.00 0.00 83 1010.4
20260508094037 36 203 2.0 4.0 0.00 0.00 0.00 83 1010.6
20260508093115 35 203 1.0 3.0 0.00 0.00 0.00 84 1010.4
20260508092536 35 203 2.0 4.0 0.00 0.00 0.00 84 1010.3
20260508091515 35 0.0 1.0 0.00 0.00 0.00 83 1010.4
20260508090515 35 225 2.0 3.0 0.00 0.00 0.00 83 1010.5
20260508085516 37 0.0 1.0 0.00 0.00 0.00 82 1010.5
20260508084536 37 0.0 1.0 0.00 0.00 0.00 82 1010.5
20260508083518 37 0.0 1.0 0.00 0.00 0.00 83 1010.6
20260508082517 36 0.0 1.0 0.00 0.00 0.00 86 1010.7
20260508081518 35 0.0 1.0 0.00 0.00 0.00 84 1010.7
20260508080517 37 225 1.0 2.0 0.00 0.00 0.00 84 1011.0
20260508075537 38 0.0 1.0 0.00 0.00 0.00 84 1011.1
20260508074517 38 0.0 1.0 0.00 0.00 0.00 84 1011.0
20260508073517 38 0.0 3.0 0.00 0.00 0.00 84 1011.2
20260508072517 38 0.0 2.0 0.00 0.00 0.00 86 1011.3
20260508071517 37 0.0 2.0 0.00 0.00 0.00 89 1011.2
20260508070517 36 0.0 2.0 0.00 0.00 0.00 89 1011.4
20260508065515 36 0.0 1.0 0.00 0.00 0.00 87 1011.4
20260508064538 37 0.0 0.0 0.00 0.00 0.00 86 1011.5
20260508063518 37 0.0 2.0 0.00 0.00 0.00 85 1011.6
20260508062517 38 0.0 2.0 0.00 0.00 0.00 85 1011.6
20260508061517 38 0.0 1.0 0.00 0.00 0.00 83 1011.7
20260508060517 39 0.0 2.0 0.00 0.00 0.00 82 1011.8
20260508055517 40 248 1.0 2.0 0.00 0.00 0.00 81 1011.9
20260508054517 40 248 1.0 3.0 0.00 0.00 0.00 81 1011.8
20260508053517 40 248 2.0 4.0 0.00 0.00 0.00 81 1011.8
20260508052517 39 248 1.0 3.0 0.00 0.00 0.00 82 1011.9
20260508051517 39 270 1.0 3.0 0.00 0.00 0.00 82 1012.0
20260508050517 38 293 2.0 4.0 0.00 0.00 0.00 80 1012.0
20260508045518 37 270 1.0 3.0 0.00 0.00 0.00 81 1012.0
20260508044518 37 293 1.0 2.0 0.00 0.00 0.00 78 1012.0
20260508043519 37 293 1.0 3.0 0.00 0.00 0.00 77 1012.1
20260508042517 38 68 1.0 4.0 0.00 0.00 0.00 73 1012.2
20260508041517 37 0.0 2.0 0.00 0.00 0.00 70 1012.2
20260508040517 38 0.0 1.0 0.00 0.00 0.00 70 1012.1
20260508035517 37 0.0 1.0 0.00 0.00 0.00 71 1012.1
20260508034618 38 0.0 1.0 0.00 0.00 0.00 70 1011.9
20260508033517 38 0.0 1.0 0.00 0.00 0.00 71 1012.1
20260508032517 38 0.0 0.0 0.00 0.00 0.00 71 1012.1
20260508031517 38 0.0 1.0 0.00 0.00 0.00 69 1012.0
20260508030558 39 0.0 0.0 0.00 0.00 0.00 69 1012.1
20260508025518 39 0.0 0.0 0.00 0.00 0.00 65 1012.2
20260508024517 40 0.0 0.0 0.00 0.00 0.00 62 1012.2
20260508023517 40 0.0 1.0 0.00 0.00 0.00 65 1012.2
20260508022517 41 0.0 0.0 0.00 0.00 0.00 63 1012.2
20260508021518 40 0.0 0.0 0.00 0.00 0.00 61 1012.0
20260508020517 41 0.0 0.0 0.00 0.00 0.00 58 1012.0
20260508015517 43 0.0 0.0 0.00 0.00 0.00 56 1011.9
20260508014517 44 0.0 0.0 0.00 0.00 0.00 54 1011.8
20260508013518 44 0.0 0.0 0.00 0.00 0.00 54 1011.6
20260508012538 45 0.0 1.0 0.00 0.00 0.00 54 1011.5
20260508011537 46 0.0 1.0 0.00 0.00 0.00 50 1011.4
20260508010517 47 0.0 1.0 0.00 0.00 0.00 48 1011.5
20260508005517 48 315 2.0 3.0 0.00 0.00 0.00 48 1011.6
20260508004537 49 315 3.0 6.0 0.00 0.00 0.00 47 1011.5
20260508003537 49 315 5.0 8.0 0.00 0.00 0.00 48 1011.5
20260508002517 50 293 5.0 8.0 0.00 0.00 0.00 46 1011.3
20260508001519 51 270 6.0 8.0 0.00 0.00 0.00 43 1011.2
20260508000520 51 293 7.0 12.0 0.00 0.00 0.00 43 1011.2
20260507235517 50 270 3.0 5.0 0.00 0.00 0.00 48 1011.3
20260507234517 50 270 2.0 4.0 0.00 0.00 0.00 45 1011.2
20260507233518 50 293 2.0 4.0 0.00 0.00 0.00 47 1011.2
20260507232517 50 270 5.0 6.0 0.00 0.00 0.00 47 1011.0
20260507231537 51 248 6.0 8.0 0.00 0.00 0.00 44 1010.9
20260507230519 51 270 8.0 11.0 0.00 0.00 0.00 42 1011.0
20260507225518 52 270 4.0 7.0 0.00 0.00 0.00 44 1011.1
20260507224517 51 270 6.0 11.0 0.00 0.00 0.00 42 1011.2
20260507223517 51 293 7.0 13.0 0.00 0.00 0.00 46 1011.1
20260507222517 52 248 6.0 8.0 0.00 0.00 0.00 42 1011.1
20260507221517 52 270 6.0 11.0 0.00 0.00 0.00 45 1011.1
20260507220517 51 270 10.0 13.0 0.00 0.00 0.00 41 1011.2
20260507215537 51 270 4.0 8.0 0.00 0.00 0.00 44 1011.2
20260507214523 51 270 6.0 9.0 0.00 0.00 0.00 44 1011.2
20260507213523 51 293 6.0 12.0 0.00 0.00 0.00 44 1011.2
20260507212516 52 270 8.0 11.0 0.00 0.00 0.00 44 1011.1
20260507211517 52 248 2.0 4.0 0.00 0.00 0.00 44 1011.1
20260507210536 51 270 7.0 10.0 0.00 0.00 0.00 43 1011.2
20260507205517 51 270 6.0 12.0 0.00 0.00 0.00 44 1011.3
20260507204518 51 270 4.0 8.0 0.00 0.00 0.00 46 1011.4
20260507203518 51 293 6.0 12.0 0.00 0.00 0.00 44 1011.4
20260507202518 50 270 4.0 8.0 0.00 0.00 0.00 43 1011.5
20260507201537 51 270 7.0 13.0 0.00 0.00 0.00 47 1011.5
20260507200537 50 270 9.0 13.0 0.00 0.00 0.00 44 1011.7
20260507195516 51 248 9.0 14.0 0.00 0.00 0.00 44 1011.8
20260507194516 51 270 4.0 7.0 0.00 0.00 0.00 40 1011.9
20260507193516 51 293 6.0 9.0 0.00 0.00 0.00 46 1012.1
20260507192516 52 225 6.0 15.0 0.00 0.00 0.00 46 1011.9
20260507191517 50 248 9.0 13.0 0.00 0.00 0.00 45 1012.1
20260507190516 51 248 11.0 15.0 0.00 0.00 0.00 48 1012.1
20260507185517 50 225 11.0 15.0 0.00 0.00 0.00 43 1012.1
20260507184517 50 248 11.0 15.0 0.00 0.00 0.00 46 1012.2
20260507183516 50 225 12.0 17.0 0.00 0.00 0.00 46 1012.3
20260507182516 50 225 9.0 16.0 0.00 0.00 0.00 46 1012.3
20260507181516 50 225 8.0 11.0 0.00 0.00 0.00 48 1012.4
20260507180558 50 225 10.0 17.0 0.00 0.00 0.00 48 1012.5
20260507175537 51 225 11.0 15.0 0.00 0.00 0.00 52 1012.6
20260507174538 49 248 8.0 15.0 0.00 0.00 0.00 49 1012.6
20260507173517 49 203 7.0 14.0 0.00 0.00 0.00 48 1012.7
20260507172516 50 225 7.0 12.0 0.00 0.00 0.00 48 1012.9
20260507171516 50 225 10.0 17.0 0.00 0.00 0.00 49 1012.8
20260507170516 51 203 5.0 12.0 0.00 0.00 0.00 48 1013.1
20260507165536 50 225 7.0 14.0 0.00 0.00 0.00 51 1013.2
20260507164516 49 225 4.0 9.0 0.00 0.00 0.00 49 1013.3
20260507163516 49 225 9.0 13.0 0.00 0.00 0.00 50 1013.5
20260507162516 49 225 7.0 14.0 0.00 0.00 0.00 47 1013.5
20260507161517 49 225 6.0 11.0 0.00 0.00 0.00 47 1013.7
20260507160518 49 225 8.0 14.0 0.00 0.00 0.00 48 1013.8
20260507155516 49 248 6.0 12.0 0.00 0.00 0.00 46 1013.9
20260507154516 48 248 7.0 10.0 0.00 0.00 0.00 46 1014.1
20260507153516 47 225 5.0 9.0 0.00 0.00 0.00 49 1014.1
20260507152516 47 248 9.0 13.0 0.00 0.00 0.00 47 1014.3
20260507151516 48 248 5.0 10.0 0.00 0.00 0.00 50 1014.5
20260507150516 47 248 5.0 10.0 0.00 0.00 0.00 50 1014.5
20260507145536 46 248 7.0 11.0 0.00 0.00 0.00 52 1014.6
20260507144517 46 248 7.0 11.0 0.00 0.00 0.00 55 1014.8
20260507143518 46 270 7.0 12.0 0.00 0.00 0.00 56 1014.7
20260507142517 45 270 7.0 13.0 0.00 0.00 0.00 59 1014.8
20260507141516 44 248 7.0 9.0 0.00 0.00 0.00 60 1014.8
20260507140516 44 248 7.0 10.0 0.00 0.00 0.00 63 1014.9
20260507135516 42 225 7.0 10.0 0.00 0.00 0.00 65 1015.0
20260507134516 41 248 8.0 10.0 0.00 0.00 0.00 66 1015.0
20260507133516 41 225 6.0 7.0 0.00 0.00 0.00 70 1015.0
20260507132516 40 225 3.0 6.0 0.00 0.00 0.00 71 1014.9
20260507131518 39 225 5.0 7.0 0.00 0.00 0.00 72 1015.0
20260507130536 39 225 5.0 8.0 0.00 0.00 0.00 72 1015.1
20260507125516 38 225 4.0 6.0 0.00 0.00 0.00 74 1015.1